Regional Weather Roundup
Issued by NWS

Current Version | Previous Version | Graphics & Text | Print | Product List | Glossary On
Versions: 1 2 3 4 5 6 7 8 9 10 11 12 13 14 15 16 17 18 19 20 21 22 23 24 25 26 27 28 29 30 31 32 33 34 35 36 37 38 39 40 41 42 43 44 45 46 47 48 49 50
000
ASHW40 PHFO 291643
RWRHI

WEATHER ROUNDUP FOR HAWAII
NATIONAL WEATHER SERVICE HONOLULU HI
600 AM HST TUE JUL 29 2014

THIS IS AN AUTOMATED REPORT THAT HAS NOT BEEN QUALITY CONTROLLED.

NOTE..."FAIR" INDICATES FEW OR NO CLOUDS BELOW 12,000 FEET WITH NO
SIGNIFICANT WEATHER AND/OR OBSTRUCTIONS TO VISIBILITY.

* - THESE SITES REPORT LIMITED FIELDS

HIZ001>004-291700-
KAUAI-NIIHAU-

CITY           SKY/WX    TMP DP  RH WIND       PRES   REMARKS
LIHUE APT      MOCLDY    77  70  78 NE9       30.07R
PORT ALLEN*      N/A     73 N/A N/A N5          N/A
POIPU*           N/A     75 N/A N/A NE5G10      N/A
PRINCEVILLE*   NOT AVBL
KOKOLE POINT*  NOT AVBL
MOLOAA DAIRY*  NOT AVBL
WAIMEA HTS*      N/A    N/A N/A N/A VRB3        N/A
PUU OPAE*        N/A     64  61  88 CALM        N/A
PUU LUA*       NOT AVBL
MAKAHA RIDGE*  NOT AVBL
$$

HIZ005>011-291700-
OAHU-

CITY           SKY/WX    TMP DP  RH WIND       PRES   REMARKS
HONOLULU       PTCLDY    77  67  71 NE6       30.04R
KALAELOA       PTCLDY    71  66  84 CALM      30.05R
KANEOHE MCB    PTCLDY    79  66  64 E6        30.05R
WHEELER FIELD  FAIR      68  65  90 W5        30.06R
BELLOWS*         N/A    N/A N/A N/A E15         N/A
KAHUKU*          N/A    N/A N/A N/A E8          N/A
WHEELER*       NOT AVBL
WAIANAE HARBOR NOT AVBL
DILLINGHAM*      N/A     66  64  94 SE1         N/A
KAHUKU TRN*      N/A     73  68  83 E7G16       N/A
KAWAILOA*      NOT AVBL
KII*             N/A     77  70  78 CALM        N/A
MAKUA RANGE*     N/A     70  64  83 SE5         N/A
OAHU FOREST NW   N/A     66  66 100 NE17G28     N/A
SCHOFIELD BRK*   N/A     66  64  94 MISG        N/A
SCHOFIELD S*   NOT AVBL
WAIANAE VLY*     N/A     72  61  68 N2G12       N/A
KUAOKALA*        N/A     73  64  73 CALM        N/A
HONOULIUULI*   NOT AVBL
MOKUOLOE IS*     N/A    N/A N/A N/A MISG        N/A
PALEHUA*         N/A     81  68  65 CALM        N/A
WAIAWA PHB*    NOT AVBL
$$

HIZ012>013-291700-
MOLOKAI-

CITY           SKY/WX    TMP DP  RH WIND       PRES   REMARKS
MOLOKAI AIRPT  CLEAR     73  70  90 NE5       30.05R
KALAUPAPA      NOT AVBL
MAKAPULAPAI*     N/A     77  70  78 E15G23      N/A
MOLOKAI 1*       N/A     64  63  94 N2G12       N/A
PUU ALII*        N/A     59  58  96 E3G12       N/A
$$

HIZ016-291700-
KAHOOLAWE-

CITY           SKY/WX    TMP DP  RH WIND       PRES   REMARKS
KAHOOLAWE*       N/A     70 N/A N/A E16G23      N/A
HAKIOAWA*        N/A     71  64  77 MISG      30.17R
HONOKANAIA*      N/A     78  68  72 NE12G22   30.04R
KANELOA*         N/A     73  66  78 E16G25    30.13R
KEALIALALO*      N/A    N/A N/A N/A E14G25    30.34R
LUA MAKIKA*    NOT AVBL
$$

HIZ014>015-291700-
LANAI-

CITY           SKY/WX    TMP DP  RH WIND       PRES   REMARKS
LANAI CITY     FAIR      67  67 100 E5        30.10R
LANAI 1*         N/A     70  70 100 NE12G18     N/A
$$

HIZ017>028-291700-
MAUI-

CITY           SKY/WX    TMP DP  RH WIND       PRES   REMARKS
KAHULUI        PTCLDY    66  63  90 SE5       30.04R
KAPALUA-W MAUI PTCLDY    75  64  69 NE12      30.04
HANA AIRPORT   MOCLDY    72  68  88 CALM      30.08S
HANA*            N/A     73 N/A N/A S3          N/A
HALEAKALA SUMM   N/A     43  23  45 NW9         N/A
MAALAEA BAY*   NOT AVBL
HALEAKALA*     NOT AVBL
KAUPO GAP*       N/A     55  45  67 N6          N/A
KULA 1*          N/A    N/A N/A N/A E8          N/A
$$

HIZ023>026-291700-
BIG ISLAND OF HAWAII COAST AND LOWER SLOPES-

CITY           SKY/WX    TMP DP  RH WIND       PRES   REMARKS
KAILUA KONA    PTCLDY    78  70  76 CALM      29.99R
HILO           MOCLDY    71  64  78 SW7       30.05R
HONOKAA*       NOT AVBL
KAWAIHAE MWT*    N/A     77 N/A N/A E3          N/A
KAWAIHAE*        N/A     79 N/A N/A NE3         N/A
SOUTH POINT*     N/A     68 N/A N/A NE13G18     N/A
UPOLU AIRPORT*   N/A    N/A N/A N/A E13G18      N/A
KAMUELA*       SUNNY     63  55  77 NE14      30.14R
HAKALAU*         N/A     43  34  70 SW3         N/A
KALOKO-HONOKO*   N/A     73  70  88 NE2       29.99R
PALI 2*          N/A     63  55  77 VRB12G18    N/A
KEALAKOMO*       N/A     75  64  69 N8G16       N/A
KAUPULEHU*       N/A     72  61  68 SE8         N/A
KAPAPALA*        N/A     60  55  82 N5G10       N/A
LOWER KAHUKU*  NOT AVBL
PUHE CS*       NOT AVBL
PUHO CS*         N/A     72  66  82 E3          N/A
PTA KEAMUKU*     N/A     59  52  77 SE12        N/A
WAIKOLOA*        N/A     72  57  60 E8G21       N/A
$$

HIZ027>028-291700-
BIG ISLAND OF HAWAII INTERIOR AND SUMMMITS-

CITY           SKY/WX    TMP DP  RH WIND       PRES   REMARKS
BRADSHAW FIELD CLOUDY    49  34  56 SE6       30.37R
MK VISITOR CEN NOT AVBL
MAUNA KEA*       N/A     39 -18   8 E7          N/A
MAUNA LOA*       N/A    N/A N/A N/A MISG        N/A
MAUNA LOA 1*     N/A    N/A N/A N/A MISG        N/A
PTA KIPUKA*      N/A     50  46  87 E3          N/A
PTA RANGE 17*    N/A     52  39  62 E3          N/A
PTA WEST*        N/A     55  45  67 SE9         N/A
NENE CABIN*    NOT AVBL
AHUMOA*          N/A     50  40  67 E5          N/A
PTA PORTABLE*  NOT AVBL
PUU MALI*      NOT AVBL
$$

HIC003-291700-
NORTHWEST ISLANDS-

CITY           SKY/WX    TMP DP  RH WIND       PRES   REMARKS
MIDWAY ISLAND  CLEAR     81  73  78 S15       30.01F
MIDWAY NOS*    NOT AVBL
FRENCH FRIGATE NOT AVBL
$$

PHZ110>124-180-291700-
BUOY REPORTS

STATION/POSITION TIME  TEMP    WIND        PRES    WAVE   SWELL
                       AIR SEA DIR/SP/G            HT/PER HT/DIR
                 (UTC) (F)     (DEG/KT/KT) (MB)    (FT/S) (FT/D)
BUOY 51001       NOT AVBL
BUOY 51101       1600   79 80   90/ 12/ 14 1017.8R   5/10   5/110
BUOY 51100       1600   77 78  100/ 10/ 12 1018.7R
BUOY 51003       1600   80 81   90/  8/ 12 1016.1R   7/ 8   7
BUOY 51004       1514   78 80   50/ 16/ 19 1014.7    7/ 9   7/100
BARBERS PT BUOY  NOT AVBL
WAIMEA BAY BUOY  1600      80                N/A     2/13   2/290
KAILUA BAY BUOY  1600      80                N/A     5/ 9
LANAI BUOY       1600      81                N/A     2/15   2/200
BARBERS PT 2     1600      81                N/A     4/ 6   2/210
PAUWELA MAUI     1600      79                N/A     5/ 9   2/100
HILO             NOT AVBL
KANEOHE BAY BUOY 1600      79                N/A     4/ 9
HANALEI KAUAI    NOT AVBL
KAHULUI HARBOR   1600   75 80   20/  5/  9 1017.0R
HONOLULU HARBOR  1600   78     100/  2/  6 1017.7R
KILO NALU        NOT AVBL
HILO HARBOR      1600   72     200/  3/  5 1017.1R
MOKUOLOE         1600      82              1018.0R
NAWILIWILI       1600      82                N/A
WHOTS BUOY       NOT AVBL
BUOY 51028       NOT AVBL
$$

......................KEY........................................
  SKY/WX - SKY CONDITIONS/PRESENT WEATHER
  TMP    - TEMPERATURE IN FAHRENHEIT
  DWPT   - DEWPOINT IN FAHRENHEIT
  RH     - RELATIVE HUMIDITY IN PERCENT
  WIND   - DIRECTION AND SPEED /MPH FOR ISLANDS...KTS FOR BUOYS/
  PRES   - MEAN SEA LEVEL PRESSURE IN INCHES OF HG
  VSB    - VISIBILITY IN MILES
  HX     - HEAT INDEX
  WCI    - WIND CHILL INDEX
  VRB    - VARIABLE WIND DIRECTION
  N/A    - NOT AVAILABLE


USA.gov is the U.S. government's official web portal to all federal, state and local government web resources and services.